Вернуться в каталог

STARLINK-4512

АктивенСвязьVLEO
NORAD 53398·PAYLOAD·🇺🇸 United States

Запущен Aug 10, 2022 с Cape Canaveral Space Force Station

Loading…

Ближайшие Пролёты (ближайшие 24 часа)

TLE

СвежийSource: CelesTrak SupGP

Эпоха: Sep 14, 2026, 20:58 UTC

1 53398C 22097L   26257.87409722 -.00026666  00000+0 -76303-3 0  2575
2 53398  53.1595 347.9687 0000907  85.9234 315.6111 15.35408672    19

Отслеживайте STARLINK-4512 в реальном времени с AllMySat

Download on the App Store